Location: Unspecified
(0.0000°N, 0.0000°E)
Time: 15:53:12
(UTC+00:00)

Vanguard 1 Rocket - Pass Details

Date: 10 December 2017
Orbit: 652 x 4225 km, 34.3° (Epoch: 22 July)

Event Time Altitude Azimuth Distance (km) Brightness Sun altitude
Rises 21:25:32 0° 319° (NW) 6,829 11.9 -47.4°
Reaches altitude 10° 21:31:11 10° 332° (NNW) 6,322 11.6 -48.6°
Enters shadow 21:36:45 19° 346° (NNW) 6,005 11.3 -49.7°
Maximum altitude 21:48:56 27° 24° (NNE) 5,933 - -52.1°
Drops below altitude 10° 22:08:55 10° 74° (ENE) 7,220 - -55.8°
Sets 22:15:52 0° 86° (E) 7,925 - -57.0°
